Regional Weather Roundup
Issued by NWS

Home | Current Version | Previous Version | Text Only | Print | Product List | Glossary Off
Versions: 1 2 3 4 5 6 7 8 9 10 11 12 13 14 15 16 17 18 19 20 21 22 23 24 25 26 27 28 29 30 31 32 33 34 35 36 37 38 39 40 41 42 43 44 45 46 47 48 49 50

000
ASUS43 KBIS 201102
RWRND

NORTH DAKOTA REGIONAL WEATHER ROUNDUP
NATIONAL WEATHER SERVICE BISMARCK ND
500 AM CST FRI JAN 20 2017

NOTE: "FAIR" INDICATES FEW OR NO CLOUDS BELOW 12,000 FEET WITH NO
SIGNIFICANT WEATHER AND/OR OBSTRUCTIONS TO VISIBILITY.


NDZ001>003-009>011-017-201200-
NORTHWEST NORTH DAKOTA

CITY           SKY/WX    TMP DP  RH WIND       PRES   REMARKS
WILLISTON      FAIR      14  12  92 CALM      29.40F FOG
MINOT          FAIR      18  15  88 SE5       29.39R WCI  11
MINOT AFB      FOG       12   9  89 NW5       29.38S VSB 3/4 WCI   4
$$

NDZ018>021-031>035-040>046-201200-
SOUTHWEST NORTH DAKOTA

CITY           SKY/WX    TMP DP  RH WIND       PRES   REMARKS
BISMARCK       FOG       22  21  96 CALM      29.44F VSB 1/4
DICKINSON      FAIR      19  16  88 NW6       29.36F WCI  11
GARRISON         N/A      9   6  88 E7        29.41R WCI  -2
HETTINGER ARPT CLOUDY    17  14  88 NW7       29.38F WCI   8
$$

NDZ004>008-012>016-024-026-027-054-201200-
NORTHEAST NORTH DAKOTA

CITY           SKY/WX    TMP DP  RH WIND       PRES   REMARKS
GRAND FORKS    FOG       35  33  92 SE8       29.52F VSB 3/4
GRND FRKS AFB  CLOUDY    34  33  99 SE9       29.51F FOG
DEVILS LAKE    CLOUDY    31  31 100 S8        29.47S FOG
$$

NDZ022-023-025-028>030-036>039-047>053-201200-
SOUTHEAST NORTH DAKOTA

CITY           SKY/WX    TMP DP  RH WIND       PRES   REMARKS
FARGO          CLOUDY    49  36  61 SE10      29.53F HAZE
JAMESTOWN      FOG       33  33 100 SE9       29.45F VSB 3/4
$$





USA.gov is the U.S. government's official web portal to all federal, state and local government web resources and services.